This is the latest recevied weather packets stored in our database for station/object K4DNM. If no packets are shown the sender has not sent any weather packets the latest 10 day(s).
| Time | Temp. | Humidity | Pressure | Rain* | Wind** | Luminosity | Snow |
|---|---|---|---|---|---|---|---|
| 1778193338 | 12.22° C | 98% | 1008.8 hPa | 0 mm | - | 48 W/m² | - |
| 1778193037 | 12.22° C | 98% | 1008.7 hPa | 0 mm | - | 32 W/m² | - |
| 1778192737 | 12.22° C | 98% | 1008.8 hPa | 0 mm | - | 20 W/m² | - |
| 1778192437 | 12.22° C | 98% | 1008.8 hPa | 0 mm | - | 50 W/m² | - |
| 1778192137 | 12.22° C | 98% | 1009 hPa | 0 mm | - | 16 W/m² | - |
| 1778191837 | 12.22° C | 98% | 1008.9 hPa | 0 mm | - | 17 W/m² | - |
| 1778191537 | 12.22° C | 98% | 1008.7 hPa | 0 mm | - | 18 W/m² | - |
| 1778191251 | 12.22° C | 98% | 1008.8 hPa | 0 mm | - | 27 W/m² | - |
| 1778190937 | 12.22° C | 98% | 1008.5 hPa | 0 mm | - | 49 W/m² | - |
| 1778190637 | 12.22° C | 98% | 1008.5 hPa | 0.25 mm | - | 51 W/m² | - |
| 1778190337 | 12.22° C | 99% | 1008.5 hPa | 0.51 mm | - | 68 W/m² | - |
| 1778190038 | 12.22° C | 99% | 1008.4 hPa | 0.51 mm | - | 66 W/m² | - |
| 1778189736 | 12.78° C | 99% | 1008.5 hPa | 0.76 mm | - | 45 W/m² | - |
| 1778189498 | 12.78° C | 99% | 1008.5 hPa | 1.02 mm | - | 37 W/m² | - |
| 1778189145 | 12.78° C | 99% | 1008.3 hPa | 1.27 mm | - | 27 W/m² | - |
| 1778188825 | 13.33° C | 99% | 1008.1 hPa | 1.52 mm | - | 32 W/m² | - |
| 1778188523 | 13.33° C | 99% | 1008.1 hPa | 1.78 mm | - | 36 W/m² | - |
| 1778188206 | 13.33° C | 99% | 1008.1 hPa | 2.03 mm | - | 36 W/m² | - |
| 1778187909 | 13.33° C | 99% | 1007.9 hPa | 2.29 mm | - | 76 W/m² | - |
| 1778187595 | 13.89° C | 99% | 1007.9 hPa | 2.29 mm | - | 66 W/m² | - |
| 1778187295 | 13.89° C | 99% | 1007.8 hPa | 2.54 mm | - | 65 W/m² | - |
| 1778186995 | 13.89° C | 98% | 1007.9 hPa | 2.29 mm | - | 47 W/m² | - |
| 1778186695 | 13.89° C | 98% | 1007.9 hPa | 2.29 mm | - | 41 W/m² | - |
| 1778186397 | 14.44° C | 98% | 1007.5 hPa | 2.03 mm | - | 35 W/m² | - |
| 1778186094 | 14.44° C | 98% | 1007.5 hPa | 1.78 mm | - | 32 W/m² | - |
* Rain latest hour (hover to see other rain measurements)
** Current wind speed in m/s (hover to see current wind gust speed)